sat.trackr.live / text

‹ back to catalog

STARLINK-3896

NORAD 52456 · 2022-049F

PAYLOAD ACTIVE UNKNOWN

§ Identity

Operator
Country
US
Launch date
2022-05-06
Launch site
AFETR
Launch vehicle
Mass (kg)
RCS (m²)

Purposes: comms

External: N2YO · Heavens-Above · Gunter

§ Orbital elements

Epoch: 2026-09-19T11:48:41.671872Z

Period
94.01 min
Inclination
53.1608°
Eccentricity
0.0001380
Mean motion
15.31698835 rev/d
Perigee alt
469.8 km
Apogee alt
471.7 km
Semi-major
6,848.9 km
B*
1.2893e-6
RAAN
272.5894°
Arg perigee
82.7497°
Mean anomaly
277.3661°
Rev number
24,145

§ Raw data

STARLINK-38961 52456U 22049F   26262.49214898 -.00000325  00000+0  12893-5 0  99902 52456  53.1608 272.5894 0001380  82.7497 277.3661 15.31698835241450

JSON: /api/v1/satellites/52456 · /tle

For live sub-satellite position, see the globe view (requires WebGL).

§ Visibility from observer

Set your observer location to see the next 7 days of passes ≥ 10°. The values pass through the URL so the page stays shareable.

No JS? Fill the form by hand. The geolocation button needs JavaScript.